Time,TemperatureF,DewpointF,PressureIn,WindDirection,WindDirectionDegrees,WindSpeedMPH,WindSpeedGustMPH,Humidity,HourlyPrecipIn,Conditions,Clouds,dailyrainin,SolarRadiationWatts/m^2,SoftwareType,DateUTC
2013-01-18 00:02:00,12.0,11.0,-100.00,South,183,3.0,6.0,94,0.00,,,0.00,0.000000,,2013-01-18 07:02:00,
2013-01-18 00:11:00,12.0,11.0,-100.00,South,183,3.0,6.0,94,0.00,,,0.00,0.000000,,2013-01-18 07:11:00,
2013-01-18 00:33:00,9.0,7.0,-100.00,NNE,21,2.0,6.0,90,0.00,,,0.00,0.000000,,2013-01-18 07:33:00,
2013-01-18 00:42:00,9.0,7.0,-100.00,NNE,21,2.0,6.0,90,0.00,,,0.00,0.000000,,2013-01-18 07:42:00,
2013-01-18 00:52:00,9.0,7.0,-100.00,NNE,21,2.0,6.0,90,0.00,,,0.00,0.000000,,2013-01-18 07:52:00,
2013-01-18 01:02:00,9.0,7.0,-100.00,NNE,21,2.0,6.0,90,0.00,,,0.00,0.000000,,2013-01-18 08:02:00,
2013-01-18 01:11:00,9.0,7.0,-100.00,NNE,21,2.0,6.0,90,0.00,,,0.00,0.000000,,2013-01-18 08:11:00,
2013-01-18 01:33:00,9.0,7.0,-100.00,WNW,301,2.0,7.0,91,0.00,,,0.00,0.000000,,2013-01-18 08:33:00,
2013-01-18 01:42:00,9.0,7.0,-100.00,WNW,301,2.0,7.0,91,0.00,,,0.00,0.000000,,2013-01-18 08:42:00,
2013-01-18 01:53:00,9.0,7.0,-100.00,WNW,301,2.0,7.0,91,0.00,,,0.00,0.000000,,2013-01-18 08:53:00,
2013-01-18 02:02:00,9.0,7.0,-100.00,WNW,301,2.0,7.0,91,0.00,,,0.00,0.000000,,2013-01-18 09:02:00,
2013-01-18 02:12:00,9.0,7.0,-100.00,WNW,301,2.0,7.0,91,0.00,,,0.00,0.000000,,2013-01-18 09:12:00,
2013-01-18 02:33:00,9.0,7.0,-100.00,West,278,2.0,8.0,92,0.00,,,0.00,0.000000,,2013-01-18 09:33:00,
2013-01-18 02:42:00,9.0,7.0,-100.00,West,278,2.0,8.0,92,0.00,,,0.00,0.000000,,2013-01-18 09:42:00,
2013-01-18 02:52:00,9.0,7.0,-100.00,West,278,2.0,8.0,92,0.00,,,0.00,0.000000,,2013-01-18 09:52:00,
2013-01-18 03:02:00,9.0,7.0,-100.00,West,278,2.0,8.0,92,0.00,,,0.00,0.000000,,2013-01-18 10:02:00,
2013-01-18 03:11:00,9.0,7.0,-100.00,West,278,2.0,8.0,92,0.00,,,0.00,0.000000,,2013-01-18 10:11:00,
2013-01-18 03:33:00,8.0,6.0,-100.00,SE,127,4.0,7.0,91,0.00,,,0.00,0.000000,,2013-01-18 10:33:00,
2013-01-18 03:43:00,8.0,6.0,-100.00,SE,127,4.0,7.0,91,0.00,,,0.00,0.000000,,2013-01-18 10:43:00,
2013-01-18 03:52:00,8.0,6.0,-100.00,SE,127,4.0,7.0,91,0.00,,,0.00,0.000000,,2013-01-18 10:52:00,
2013-01-18 04:02:00,8.0,6.0,-100.00,SE,127,4.0,7.0,91,0.00,,,0.00,0.000000,,2013-01-18 11:02:00,
2013-01-18 04:12:00,8.0,6.0,-100.00,SE,127,4.0,7.0,91,0.00,,,0.00,0.000000,,2013-01-18 11:12:00,
2013-01-18 04:33:00,5.0,3.0,-100.00,SSW,207,2.0,9.0,92,0.00,,,0.00,0.000000,,2013-01-18 11:33:00,
2013-01-18 05:12:00,5.0,3.0,-100.00,SSW,207,2.0,9.0,92,0.00,,,0.00,0.000000,,2013-01-18 12:12:00,
2013-01-18 05:33:00,5.0,3.0,-100.00,ENE,67,3.0,5.0,92,0.00,,,0.00,0.000000,,2013-01-18 12:33:00,
2013-01-18 06:33:00,6.0,4.0,-100.00,ESE,118,3.0,5.0,91,-99.99,,,0.00,0.000000,,2013-01-18 13:33:00,
2013-01-18 07:03:00,6.0,4.0,-100.00,ESE,118,3.0,5.0,91,-99.99,,,0.00,0.000000,,2013-01-18 14:03:00,
2013-01-18 07:12:00,6.0,4.0,-100.00,ESE,118,3.0,5.0,91,-99.99,,,0.00,0.000000,,2013-01-18 14:12:00,
2013-01-18 07:43:00,8.0,6.0,-100.00,SSW,195,3.0,6.0,91,0.00,,,-99.99,0.000000,,2013-01-18 14:43:00,
2013-01-18 07:53:00,8.0,6.0,-100.00,SSW,195,3.0,6.0,91,0.00,,,-99.99,0.000000,,2013-01-18 14:53:00,
2013-01-18 08:02:00,8.0,6.0,-100.00,SSW,195,3.0,6.0,91,0.00,,,-99.99,0.000000,,2013-01-18 15:02:00,
2013-01-18 08:12:00,8.0,6.0,-100.00,SSW,195,3.0,6.0,91,0.00,,,-99.99,0.000000,,2013-01-18 15:12:00,
2013-01-18 08:34:00,8.0,6.0,-100.00,SSE,150,2.0,6.0,91,0.00,,,0.00,0.000000,,2013-01-18 15:34:00,
2013-01-18 08:43:00,8.0,6.0,-100.00,SSE,150,2.0,6.0,91,0.00,,,0.00,0.000000,,2013-01-18 15:43:00,
2013-01-18 08:53:00,8.0,6.0,-100.00,SSE,150,2.0,6.0,91,0.00,,,0.00,0.000000,,2013-01-18 15:53:00,
2013-01-18 09:02:00,8.0,6.0,-100.00,SSE,150,2.0,6.0,91,0.00,,,0.00,0.000000,,2013-01-18 16:02:00,
2013-01-18 09:33:00,11.0,9.0,-100.00,ESE,116,3.0,7.0,90,0.00,,,0.00,43.000000,,2013-01-18 16:33:00,
2013-01-18 09:43:00,11.0,9.0,-100.00,ESE,116,3.0,7.0,90,0.00,,,0.00,43.000000,,2013-01-18 16:43:00,
2013-01-18 09:53:00,11.0,9.0,-100.00,ESE,116,3.0,7.0,90,0.00,,,0.00,43.000000,,2013-01-18 16:53:00,
2013-01-18 10:02:00,11.0,9.0,-100.00,ESE,116,3.0,7.0,90,0.00,,,0.00,43.000000,,2013-01-18 17:02:00,
2013-01-18 10:12:00,11.0,9.0,-100.00,ESE,116,3.0,7.0,90,0.00,,,0.00,43.000000,,2013-01-18 17:12:00,
2013-01-18 10:34:00,12.0,9.0,-100.00,NNE,13,2.0,9.0,87,0.00,,,0.00,143.000000,,2013-01-18 17:34:00,
2013-01-18 10:43:00,12.0,9.0,-100.00,NNE,13,2.0,9.0,87,0.00,,,0.00,143.000000,,2013-01-18 17:43:00,
2013-01-18 10:53:00,12.0,9.0,-100.00,NNE,13,2.0,9.0,87,0.00,,,0.00,143.000000,,2013-01-18 17:53:00,
2013-01-18 11:12:00,12.0,9.0,-100.00,NNE,13,2.0,9.0,87,0.00,,,0.00,143.000000,,2013-01-18 18:12:00,
2013-01-18 11:33:00,22.0,16.0,-100.00,ENE,69,3.0,6.0,78,-99.99,,,0.00,362.000000,,2013-01-18 18:33:00,
2013-01-18 11:43:00,22.0,16.0,-100.00,ENE,69,3.0,6.0,78,-99.99,,,0.00,362.000000,,2013-01-18 18:43:00,
2013-01-18 11:53:00,22.0,16.0,-100.00,ENE,69,3.0,6.0,78,-99.99,,,0.00,362.000000,,2013-01-18 18:53:00,
2013-01-18 12:02:00,22.0,16.0,-100.00,ENE,69,3.0,6.0,78,-99.99,,,0.00,362.000000,,2013-01-18 19:02:00,
2013-01-18 12:12:00,22.0,16.0,-100.00,ENE,69,3.0,6.0,78,-99.99,,,0.00,362.000000,,2013-01-18 19:12:00,
2013-01-18 12:33:00,26.0,19.0,-100.00,ENE,75,3.0,7.0,73,0.00,,,-99.99,421.000000,,2013-01-18 19:33:00,
2013-01-18 12:43:00,26.0,19.0,-100.00,ENE,75,3.0,7.0,73,0.00,,,-99.99,421.000000,,2013-01-18 19:43:00,
2013-01-18 12:53:00,26.0,19.0,-100.00,ENE,75,3.0,7.0,73,0.00,,,-99.99,421.000000,,2013-01-18 19:53:00,
2013-01-18 13:03:00,26.0,19.0,-100.00,ENE,75,3.0,7.0,73,0.00,,,-99.99,421.000000,,2013-01-18 20:03:00,
2013-01-18 13:12:00,26.0,19.0,-100.00,ENE,75,3.0,7.0,73,0.00,,,-99.99,421.000000,,2013-01-18 20:12:00,
2013-01-18 13:33:00,33.0,23.0,-100.00,ENE,69,3.0,9.0,66,0.00,,,-99.99,541.000000,,2013-01-18 20:33:00,
2013-01-18 13:43:00,33.0,23.0,-100.00,ENE,69,3.0,9.0,66,0.00,,,-99.99,541.000000,,2013-01-18 20:43:00,
2013-01-18 13:53:00,33.0,23.0,-100.00,ENE,69,3.0,9.0,66,0.00,,,-99.99,541.000000,,2013-01-18 20:53:00,
2013-01-18 14:02:00,33.0,23.0,-100.00,ENE,69,3.0,9.0,66,0.00,,,-99.99,541.000000,,2013-01-18 21:02:00,
2013-01-18 14:12:00,33.0,23.0,-100.00,ENE,69,3.0,9.0,66,0.00,,,-99.99,541.000000,,2013-01-18 21:12:00,
2013-01-18 14:43:00,34.0,21.0,-100.00,West,260,4.0,10.0,59,0.00,,,-99.99,504.000000,,2013-01-18 21:43:00,
2013-01-18 14:53:00,34.0,21.0,-100.00,West,260,4.0,10.0,59,0.00,,,-99.99,504.000000,,2013-01-18 21:53:00,
2013-01-18 15:02:00,34.0,21.0,-100.00,West,260,4.0,10.0,59,0.00,,,-99.99,504.000000,,2013-01-18 22:02:00,
2013-01-18 15:12:00,34.0,21.0,-100.00,West,260,4.0,10.0,59,0.00,,,-99.99,504.000000,,2013-01-18 22:12:00,
2013-01-18 15:43:00,40.0,25.0,-100.00,East,85,5.0,9.0,54,0.00,,,0.00,494.000000,,2013-01-18 22:43:00,
2013-01-18 15:53:00,40.0,25.0,-100.00,East,85,5.0,9.0,54,0.00,,,0.00,494.000000,,2013-01-18 22:53:00,
2013-01-18 16:02:00,40.0,25.0,-100.00,East,85,5.0,9.0,54,0.00,,,0.00,494.000000,,2013-01-18 23:02:00,
2013-01-18 16:12:00,40.0,25.0,-100.00,East,85,5.0,9.0,54,0.00,,,0.00,494.000000,,2013-01-18 23:12:00,
2013-01-18 16:33:00,39.0,25.0,-100.00,East,95,5.0,11.0,57,0.00,,,0.00,340.000000,,2013-01-18 23:33:00,
2013-01-18 16:43:00,39.0,25.0,-100.00,East,95,5.0,11.0,57,0.00,,,0.00,340.000000,,2013-01-18 23:43:00,
2013-01-18 16:53:00,39.0,25.0,-100.00,East,95,5.0,11.0,57,0.00,,,0.00,340.000000,,2013-01-18 23:53:00,
2013-01-18 17:02:00,39.0,25.0,-100.00,East,95,5.0,11.0,57,0.00,,,0.00,340.000000,,2013-01-19 00:02:00,
2013-01-18 17:12:00,39.0,25.0,-100.00,East,95,5.0,11.0,57,0.00,,,0.00,340.000000,,2013-01-19 00:12:00,
2013-01-18 17:33:00,37.0,24.0,-100.00,ENE,76,2.0,7.0,60,0.00,,,0.00,58.000000,,2013-01-19 00:33:00,
2013-01-18 17:43:00,37.0,24.0,-100.00,ENE,76,2.0,7.0,60,0.00,,,0.00,58.000000,,2013-01-19 00:43:00,
2013-01-18 17:53:00,37.0,24.0,-100.00,ENE,76,2.0,7.0,60,0.00,,,0.00,58.000000,,2013-01-19 00:53:00,
2013-01-18 18:02:00,37.0,24.0,-100.00,ENE,76,2.0,7.0,60,0.00,,,0.00,58.000000,,2013-01-19 01:02:00,
2013-01-18 18:12:00,37.0,24.0,-100.00,ENE,76,2.0,7.0,60,0.00,,,0.00,58.000000,,2013-01-19 01:12:00,
2013-01-18 18:43:00,38.0,23.0,-100.00,North,8,7.0,15.0,54,0.00,,,-99.99,2.000000,,2013-01-19 01:43:00,
2013-01-18 18:52:00,38.0,23.0,-100.00,North,8,7.0,15.0,54,0.00,,,-99.99,2.000000,,2013-01-19 01:52:00,
2013-01-18 19:02:00,38.0,23.0,-100.00,North,8,7.0,15.0,54,0.00,,,-99.99,2.000000,,2013-01-19 02:02:00,
2013-01-18 19:12:00,38.0,23.0,-100.00,North,8,7.0,15.0,54,0.00,,,-99.99,2.000000,,2013-01-19 02:12:00,
2013-01-18 19:33:00,35.0,17.0,-100.00,SSW,194,4.0,12.0,47,0.00,,,0.00,0.000000,,2013-01-19 02:33:00,
2013-01-18 19:43:00,35.0,17.0,-100.00,SSW,194,4.0,12.0,47,0.00,,,0.00,0.000000,,2013-01-19 02:43:00,
2013-01-18 19:53:00,35.0,17.0,-100.00,SSW,194,4.0,12.0,47,0.00,,,0.00,0.000000,,2013-01-19 02:53:00,
2013-01-18 20:02:00,35.0,17.0,-100.00,SSW,194,4.0,12.0,47,0.00,,,0.00,0.000000,,2013-01-19 03:02:00,
2013-01-18 20:12:00,35.0,17.0,-100.00,SSW,194,4.0,12.0,47,0.00,,,0.00,0.000000,,2013-01-19 03:12:00,
2013-01-18 20:33:00,32.0,18.0,-100.00,SSW,202,5.0,9.0,55,0.00,,,0.00,0.000000,,2013-01-19 03:33:00,
2013-01-18 20:44:00,32.0,18.0,-100.00,SSW,202,5.0,9.0,55,0.00,,,0.00,0.000000,,2013-01-19 03:44:00,
2013-01-18 20:52:00,32.0,18.0,-100.00,SSW,202,5.0,9.0,55,0.00,,,0.00,0.000000,,2013-01-19 03:52:00,
2013-01-18 21:02:00,32.0,18.0,-100.00,SSW,202,5.0,9.0,55,0.00,,,0.00,0.000000,,2013-01-19 04:02:00,
2013-01-18 21:12:00,32.0,18.0,-100.00,SSW,202,5.0,9.0,55,0.00,,,0.00,0.000000,,2013-01-19 04:12:00,
2013-01-18 21:33:00,32.0,16.0,-100.00,ENE,62,3.0,9.0,52,0.00,,,0.00,0.000000,,2013-01-19 04:33:00,
2013-01-18 21:43:00,32.0,16.0,-100.00,ENE,62,3.0,9.0,52,0.00,,,0.00,0.000000,,2013-01-19 04:43:00,
2013-01-18 21:53:00,32.0,16.0,-100.00,ENE,62,3.0,9.0,52,0.00,,,0.00,0.000000,,2013-01-19 04:53:00,
2013-01-18 22:03:00,32.0,16.0,-100.00,ENE,62,3.0,9.0,52,0.00,,,0.00,0.000000,,2013-01-19 05:03:00,
2013-01-18 22:12:00,32.0,16.0,-100.00,ENE,62,3.0,9.0,52,0.00,,,0.00,0.000000,,2013-01-19 05:12:00,
2013-01-18 22:33:00,31.0,15.0,-100.00,North,5,3.0,16.0,51,0.00,,,0.00,0.000000,,2013-01-19 05:33:00,
2013-01-18 22:43:00,31.0,15.0,-100.00,North,5,3.0,16.0,51,0.00,,,0.00,0.000000,,2013-01-19 05:43:00,
2013-01-18 22:53:00,31.0,15.0,-100.00,North,5,3.0,16.0,51,0.00,,,0.00,0.000000,,2013-01-19 05:53:00,
2013-01-18 23:02:00,31.0,15.0,-100.00,North,5,3.0,16.0,51,0.00,,,0.00,0.000000,,2013-01-19 06:02:00,
2013-01-18 23:11:00,31.0,15.0,-100.00,North,5,3.0,16.0,51,0.00,,,0.00,0.000000,,2013-01-19 06:11:00,
2013-01-18 23:43:00,26.0,16.0,-100.00,ESE,119,2.0,8.0,65,0.00,,,-99.99,0.000000,,2013-01-19 06:43:00,
2013-01-18 23:53:00,26.0,16.0,-100.00,ESE,119,2.0,8.0,65,0.00,,,-99.99,0.000000,,2013-01-19 06:53:00,